Location: Unspecified
(35.6961°N, 0.0000°E)
Time: 23:53:48
(UTC+00:00)

Vanguard 2 Rocket - Pass Details

Date: 01 June 2019
Orbit: 555 x 3326 km, 32.9° (Epoch: 26 June)

Event Time Altitude Azimuth Distance (km) Brightness Sun altitude
Rises 23:32:46 0° 192° (SSW) 5,977 - -31.9°
Reaches altitude 10° 23:37:40 10° 179° (S) 5,374 - -32.0°
Maximum altitude 23:49:49 24° 133° (SE) 4,971 - -32.2°
Exits shadow 23:50:26 24° 131° (SE) 4,995 10.2 -32.2°
Drops below altitude 10° 00:03:42 10° 90° (E) 6,275 11.1 -32.2°
Sets 00:09:58 0° 78° (ENE) 7,185 11.6 -32.1°
